Other Surface Observations
Issued by NWS Charleston, SC

Home | Current Version | Previous Version | Text Only | Print | Product List | Glossary On
Versions: 1 2 3 4 5 6 7 8 9 10 11 12 13 14 15 16 17 18 19 20 21 22 23 24 25 26 27 28 29 30 31 32 33 34 35 36 37 38 39 40 41 42 43 44 45 46 47 48 49 50
410
SXUS52 KCHS 220625
OSOCHS

MARINE OBSERVATIONS
NATIONAL WEATHER SERVICE CHARLESTON SC
100 AM EST WED FEB 22 2017

...DOWNTOWN CHARLESTON AND HARBOR...

CITY           SKY/WX    TMP DP  RH WIND       PRES   REMARKS
WATERFRONT PRK   N/A     62  59  90 NE7       30.01F

...LAKE MOULTRIE...

CITY           SKY/WX    TMP DP  RH WIND       PRES   REMARKS
PINOPOLIS        N/A     59  57  94 E5        29.93F

...LAKE AND SUPPLEMENTAL COASTAL OBSERVATIONS...

STATION/POSITION TIME  TEMP    WIND        PRES    WAVE   SWELL
                       AIR SEA DIR/SP/G            HT/PER HT/PER/DIR
                 (UTC) (F)     (DEG/KT/KT) (MB)    (FT/S) (FT/S/D)
FORT PULASKI     0600   63 61  100/ 10/ 11 1014.5
SAPELO ISLAND    0600   64     130/  6     1014.0
WINYAH BAY       0545   58      40/  5     1017.0S
LAKE MURRAY      0620   59      CALM  /  3 1015.6
ACE BASIN NERRS  0530   62      50/  3     1015.0F


...C-MAN AND BUOY OBSERVATIONS...

STATION/POSITION TIME  TEMP    WIND        PRES    WAVE   SWELL
                       AIR SEA DIR/SP/G            HT/PER HT/PER/DIR
                 (UTC) (F)     (DEG/KT/KT) (MB)    (FT/S) (FT/S/D)
BUOY 41004       0550   69 69  120/ 14/ 17 1015.6F   4/ 5   2/ 70/ 9
BUOY 41008       0550   65 62  140/  8/  8 1013.7F   4/ 6   3/100/ 6
FOLLY BEACH CMAN 0600   61      50/  6/  7 1016.5F
CAPERS NS BUOY   NOT AVBL
FRIPP NS BUOY    0608   63 60  110/ 10/ 12 1014.6F
5E ST. MARYS GA  0600      64                N/A     4/ 6


STATION/POSITION TIME  TEMP    WIND        PRES    WAVE   SWELL
                       AIR SEA DIR/SP/G            HT/PER HT/PER/DIR
                 (UTC) (F)     (DEG/KT/KT) (MB)    (FT/S) (FT/S/D)
FRYING PAN BUOY  0610   68 69  120/ 14/ 17 1017.3
BUOY 41025       0550   63 74  120/  8/ 12 1019.7F   4/10   3/ 30/10
CAPE LOOKOUT NC  0600   60     110/  8/  8 1018.5F
BUOY 41002       0550   63 71   90/ 16/ 19 1018.3F   5/ 8   3/ 40/ 8
BUOY 41010       NOT AVBL
ST AUGUSTINE FL  0600   68 68  130/ 13/ 14 1013.5F

$$




USA.gov is the U.S. government's official web portal to all federal, state and local government web resources and services.